Change the Weather History Date:

Friday, February 15, 2013

  Actual Average Record
Temperature  
Mean Temperature 44 °F -  
Max Temperature 51 °F 55 °F 72 °F (1976)
Min Temperature 37 °F 37 °F 19 °F (1985)
Degree Days  
Heating Degree Days 21    
Moisture  
Dew Point 32 °F    
Average Humidity 64    
Maximum Humidity 86    
Minimum Humidity 43    
Precipitation  
Precipitation 0.01 in - - ()
Sea Level Pressure  
Sea Level Pressure 30.17 in    
Wind  
Wind Speed 5 mph (NNW)    
Max Wind Speed 12 mph    
Max Gust Speed 20 mph    
Visibility 10 miles    
Events      
Averages and records for this station are not official NWS values.
T = Trace of Precipitation, MM = Missing Value Source: NWS Daily Summary

Daily Weather History Graph

Daily Weather History Graph

Search for Another Location

Airport or City:

Trip Planner

Search our weather history database for the weather conditions in past years. The results will help you decide how hot, cold, wet, or windy it might be!

Date:

Astronomy

Feb. 15, 2013 Rise Set
Actual Time 6:46 AM CST 5:43 PM CST
Civil Twilight 6:20 AM CST 6:09 PM CST
Nautical Twilight 5:51 AM CST 6:39 PM CST
Astronomical Twilight 5:21 AM CST 7:08 PM CST
Moon 9:37 AM CST (2/15) 11:28 PM CST (2/15)
Length of Visible Light 11h 48m
Length of Day
10h 57m
Waxing Crescent, 30% of the Moon is Illuminated
Feb 15
Waxing Crescent
Feb 17
First Quarter
Feb 25
Full
Mar 4
Last Quarter
Mar 11
New

Hourly Weather History & Observations

Time (CST) Temp. Windchill Dew Point Humidity Pressure Visibility Wind Dir Wind Speed Gust Speed Precip Events Conditions
12:53 AM 41.0 °F - 37.0 °F 86% 30.07 in 10.0 mi Calm Calm - N/A   Clear
1:53 AM 42.1 °F 40.2 °F 36.0 °F 79% 30.08 in 10.0 mi NW 3.5 mph - N/A   Partly Cloudy
2:53 AM 43.0 °F 41.3 °F 36.0 °F 76% 30.09 in 10.0 mi NNW 3.5 mph - N/A   Partly Cloudy
3:53 AM 43.0 °F 41.3 °F 36.0 °F 76% 30.11 in 10.0 mi NNW 3.5 mph - N/A   Mostly Cloudy
4:53 AM 43.0 °F 39.5 °F 36.0 °F 76% 30.14 in 10.0 mi NW 5.8 mph - N/A   Overcast
5:53 AM 44.1 °F 42.5 °F 36.0 °F 73% 30.16 in 10.0 mi NNW 3.5 mph - N/A   Overcast
6:53 AM 44.1 °F 39.0 °F 35.1 °F 71% 30.17 in 10.0 mi NNW 9.2 mph - N/A   Overcast
7:53 AM 43.0 °F - 37.9 °F 82% 30.19 in 10.0 mi Calm Calm - 0.01 in   Mostly Cloudy
8:53 AM 44.1 °F 41.5 °F 39.0 °F 82% 30.20 in 10.0 mi NW 4.6 mph - N/A   Partly Cloudy
9:53 AM 48.9 °F - 35.1 °F 59% 30.20 in 10.0 mi NNW 10.4 mph 16.1 mph N/A   Clear
10:53 AM 51.1 °F - 34.0 °F 52% 30.20 in 10.0 mi Variable 5.8 mph - N/A   Clear
11:53 AM 50.0 °F - 28.0 °F 43% 30.19 in 10.0 mi NNW 8.1 mph 17.3 mph N/A   Partly Cloudy
12:53 PM 51.1 °F - 30.9 °F 46% 30.18 in 10.0 mi NNW 9.2 mph 19.6 mph N/A   Scattered Clouds
1:53 PM 50.0 °F - 30.0 °F 46% 30.17 in 10.0 mi NW 9.2 mph - N/A   Clear
2:53 PM 50.0 °F - 30.0 °F 46% 30.17 in 10.0 mi NNW 11.5 mph 18.4 mph N/A   Partly Cloudy
3:53 PM 48.9 °F - 28.9 °F 46% 30.18 in 10.0 mi NW 9.2 mph 17.3 mph N/A   Clear
4:53 PM 48.0 °F - 28.9 °F 48% 30.18 in 10.0 mi NNW 10.4 mph - N/A   Scattered Clouds
5:53 PM 44.1 °F 41.5 °F 28.9 °F 55% 30.19 in 10.0 mi North 4.6 mph - N/A   Clear
6:53 PM 43.0 °F 38.8 °F 30.0 °F 60% 30.21 in 10.0 mi NW 6.9 mph - N/A   Clear
7:53 PM 41.0 °F 39.0 °F 30.9 °F 67% 30.22 in 10.0 mi North 3.5 mph - N/A   Mostly Cloudy
8:53 PM 41.0 °F 39.0 °F 32.0 °F 70% 30.22 in 10.0 mi NNW 3.5 mph - N/A   Mostly Cloudy
9:53 PM 39.0 °F 34.8 °F 30.0 °F 70% 30.22 in 10.0 mi NNW 5.8 mph - N/A   Mostly Cloudy
10:53 PM 37.9 °F 32.7 °F 26.1 °F 62% 30.22 in 10.0 mi North 6.9 mph - N/A   Scattered Clouds
11:53 PM 37.9 °F 31.5 °F 27.0 °F 65% 30.22 in 10.0 mi North 9.2 mph - N/A   Overcast